GEFSMW_con_maxscp_180.txt.gz
SCP
3 4 4 5 5 5 4 3 3 2 2 2 2 2 2 2 1 1 1 1 1 1 1 1 1 0 0 0 0 0 0 0 0 0 0 0 0 0 0 0 1 1 1
4 4 5 5 5 5 4 4 3 2 2 2 2 2 2 1 1 1 1 1 1 1 1 1 0 0 0 0 0 0 0 0 0 0 0 0 0 0 0 0 0 1 1
5 5 5 5 5 5 5 4 3 2 2 2 2 2 2 1 1 1 1 1 1 1 1 1 1 0 0 0 0 1 1 0 0 0 0 0 0 0 0 0 0 0 0
6 6 6 6 5 5 5 5 4 3 2 2 2 2 2 1 1 1 1 1 1 1 1 1 1 1 1 1 1 1 1 1 1 1 1 0 0 0 0 0 0 0 0
6 6 7 6 6 6 6 6 5 3 3 2 2 2 2 1 1 1 1 1 1 1 1 1 1 1 1 1 1 1 1 1 1 1 1 1 0 0 0 0 0 0 0
7 7 8 7 7 7 7 7 6 4 3 2 2 2 2 1 1 1 1 1 1 1 1 1 1 1 1 1 1 1 1 1 1 1 1 1 0 0 0 0 0 0 0
8 8 8 8 8 8 8 7 6 4 3 3 2 2 2 1 1 1 1 1 1 1 1 1 1 1 1 1 1 1 1 1 1 1 1 1 0 0 0 0 0 0 0
9 8 8 8 8 8 7 6 5 4 4 3 3 2 2 1 1 1 1 1 1 1 0 0 0 1 1 1 1 1 1 1 1 1 1 1 1 0 0 0 0 0 0
8 8 9 9 8 7 7 6 5 4 4 4 3 3 2 2 1 1 1 1 1 1 1 1 1 1 1 2 2 1 1 1 1 1 1 1 1 1 1 0 0 0 0
9 10 11 11 9 8 7 5 4 4 4 4 3 2 2 2 2 2 2 2 1 1 2 1 1 2 2 2 2 2 2 2 2 2 1 1 1 1 1 1 0 0 0
10 10 11 12 11 10 8 6 4 3 3 3 3 2 2 2 2 3 3 3 3 3 3 3 3 3 4 4 3 3 3 3 3 3 2 2 1 1 1 1 0 0 0
10 9 9 11 11 11 9 7 5 4 3 3 2 2 2 2 3 4 4 5 5 5 5 5 5 5 5 5 4 3 3 4 4 4 3 2 2 1 1 1 1 0 0
10 8 8 9 10 10 9 7 6 4 3 3 3 3 3 3 4 5 6 7 7 8 8 8 8 9 8 7 5 3 3 3 3 3 3 2 1 1 1 1 1 1 1
11 9 7 7 8 8 8 7 7 6 5 4 3 3 3 4 4 5 6 8 10 11 11 11 11 12 11 9 7 4 2 1 1 2 2 2 1 1 1 1 1 1 1
11 9 8 7 7 8 8 9 9 8 7 5 4 4 4 4 4 5 6 8 10 12 13 14 14 14 14 12 9 5 3 1 0 1 1 1 1 0 0 0 0 0 0
12 11 10 10 10 11 12 13 12 11 10 8 6 5 5 4 4 4 5 6 8 10 13 14 15 15 15 12 8 6 5 2 1 0 0 0 0 0 0 0 0 0 0
16 18 18 16 15 16 17 18 17 15 12 10 7 7 6 6 5 5 4 5 6 8 11 12 13 12 11 9 6 4 5 4 2 1 1 1 0 0 0 0 0 0 0
20 22 22 19 21 23 24 23 22 19 15 11 9 8 8 8 6 5 4 4 5 6 8 8 8 7 6 4 3 2 4 4 3 1 1 1 1 0 0 0 0 0 0
18 18 17 19 24 29 29 27 25 21 17 12 10 9 9 8 7 6 5 4 4 5 5 5 3 3 2 2 1 1 2 2 2 1 1 1 1 0 0 0 0 0 0
16 13 12 16 25 31 31 28 24 19 15 12 11 10 10 9 8 8 7 6 5 4 3 2 1 2 2 1 1 0 1 1 1 1 1 0 0 0 0 0 0 0 0
18 14 11 15 22 27 28 25 20 16 13 12 12 12 12 11 11 10 9 7 6 5 3 2 2 2 2 2 1 1 1 1 1 1 1 0 0 0 0 0 0 0 0
18 15 12 14 17 20 21 18 15 15 16 16 15 15 16 15 14 13 10 9 8 6 4 2 2 2 2 2 2 1 1 1 1 1 1 0 0 0 0 0 0 0 0
16 14 14 14 13 14 14 13 12 14 18 19 18 19 20 19 16 13 10 9 7 6 4 3 3 3 3 2 2 1 1 0 1 1 1 0 0 0 0 0 0 0 0
14 14 14 13 12 10 10 10 10 11 13 15 17 21 21 18 14 12 10 8 6 5 4 3 3 3 3 3 2 2 1 0 0 0 0 0 0 0 0 0 0 0 0
13 13 13 12 10 8 7 7 7 8 9 11 15 19 18 14 11 10 8 6 4 4 3 3 3 3 2 2 2 2 1 0 0 0 0 0 0 0 0 0 0 0 0
12 13 12 11 9 7 6 5 5 7 9 11 14 16 13 10 9 9 7 4 3 3 2 2 2 2 2 2 2 1 1 0 0 0 0 0 0 0 0 0 0 0 0

GEFSMW_con_maxscp_186.txt.gz
SCP
1 1 2 2 2 2 1 1 1 1 1 1 1 1 1 1 1 1 1 1 1 1 0 0 0 0 0 0 0 1 0 0 0 0 0 0 0 0 0 0 0 0 0
1 1 2 2 2 2 2 2 1 1 1 1 1 1 1 1 1 1 1 1 1 1 1 0 0 0 0 0 0 0 0 0 0 0 0 0 0 0 0 0 0 0 0
1 2 2 2 2 2 2 2 2 1 1 1 1 1 1 1 1 1 0 0 0 0 0 0 0 0 0 0 0 0 0 0 0 0 0 0 0 0 0 0 0 0 0
1 1 2 2 2 2 2 2 2 1 1 1 1 1 1 1 1 1 0 0 0 0 0 0 0 0 0 0 0 1 1 1 1 1 1 0 0 0 0 0 0 0 0
2 2 2 3 2 2 2 2 2 2 2 1 1 1 1 1 1 1 0 0 0 0 0 0 0 0 0 0 1 1 1 1 1 1 1 1 0 0 0 0 0 0 0
3 4 4 4 3 2 2 2 2 2 2 1 1 1 2 1 1 1 1 0 0 0 0 0 0 0 0 1 1 1 1 1 1 1 1 1 1 1 0 0 0 0 0
4 5 5 4 3 2 2 2 2 2 2 1 1 2 2 2 1 1 1 0 0 0 0 1 1 1 1 1 1 1 1 2 2 2 1 1 1 1 1 0 0 0 0
3 4 4 4 3 3 2 2 2 2 2 1 1 2 2 2 1 1 1 1 1 1 1 1 1 1 1 1 1 2 2 2 2 2 2 2 1 1 1 1 0 0 0
3 3 3 4 4 4 3 3 3 2 2 2 2 2 2 2 1 1 1 1 1 1 1 1 1 1 1 1 2 2 2 3 3 2 2 2 2 2 2 1 1 1 0
4 4 4 4 4 4 4 4 3 2 2 2 2 2 2 2 2 1 1 1 1 1 1 1 1 1 1 2 2 3 3 3 3 3 2 2 2 2 2 2 1 1 1
6 6 5 5 5 5 5 4 3 2 2 2 2 2 2 2 2 1 1 1 1 1 1 1 1 1 1 2 3 3 4 4 4 3 2 2 1 2 2 1 1 1 1
6 6 6 5 6 6 5 4 3 2 2 2 3 3 2 2 2 1 1 1 1 1 1 1 2 2 2 3 4 4 5 5 5 4 2 1 1 1 1 1 1 1 1
5 5 5 5 6 6 6 4 4 3 3 3 3 3 3 2 2 2 2 1 1 1 1 2 2 3 3 4 5 5 6 6 5 4 3 2 1 1 1 1 1 1 1
4 4 4 4 5 5 5 5 4 4 3 3 3 3 3 3 2 2 2 2 1 1 1 2 2 2 3 4 5 6 7 7 6 4 3 2 2 1 1 0 0 0 0
4 4 4 4 4 4 5 4 4 4 4 4 4 3 3 3 3 3 3 2 2 1 1 1 1 1 2 2 3 4 6 6 6 5 4 3 2 2 1 0 0 0 0
4 4 3 4 4 4 4 4 5 5 5 5 5 4 4 4 4 4 4 4 3 2 2 1 1 1 1 1 1 2 3 4 5 5 4 3 2 1 1 0 0 0 0
4 4 3 3 3 3 4 4 5 6 7 7 6 6 5 6 6 5 5 5 4 3 2 2 1 1 1 0 0 0 1 1 2 3 3 3 2 1 0 0 0 0 0
5 5 4 4 4 4 5 6 7 8 9 9 8 7 7 7 7 7 6 5 4 3 3 2 2 1 1 0 0 0 0 1 1 1 2 2 1 1 0 0 0 0 0
5 5 4 4 5 6 8 9 9 10 11 11 10 9 9 9 10 9 7 5 4 4 3 3 2 2 1 0 0 0 1 1 1 1 1 1 1 0 0 0 0 0 0
5 5 5 5 6 8 9 10 10 11 12 12 11 11 11 12 12 11 8 6 5 4 4 4 3 2 1 1 0 0 1 1 1 1 1 1 1 0 0 0 0 0 0
5 5 5 5 6 8 9 10 11 11 11 12 13 13 12 12 13 12 10 8 6 4 4 4 3 3 2 1 0 0 1 2 2 2 2 1 1 0 0 0 0 0 0
5 4 5 5 5 6 8 9 9 9 9 10 13 15 14 13 13 13 12 11 7 5 4 4 4 4 3 1 1 0 1 1 1 2 2 1 1 0 0 0 0 0 0
5 4 4 5 5 5 7 8 7 7 8 8 12 17 18 15 15 16 17 15 10 6 5 4 5 4 4 2 1 1 1 1 1 1 1 1 1 0 0 0 0 0 0
5 4 4 4 4 5 5 6 6 7 7 7 10 16 20 16 14 16 17 15 11 8 7 7 6 6 5 4 2 2 1 1 1 1 1 1 1 0 0 0 0 0 0
4 4 4 4 4 5 6 6 5 6 6 7 9 13 14 11 9 11 11 9 7 7 8 8 7 5 4 3 3 2 1 1 1 1 1 1 1 1 1 1 1 1 1
4 4 4 4 4 5 6 6 5 5 6 7 8 9 8 7 6 7 6 4 3 4 6 7 6 4 3 2 2 1 1 0 0 0 1 1 2 2 1 1 1 1 1

GEFSMW_con_maxscp_192.txt.gz
SCP
2 2 2 3 3 4 3 3 3 2 2 2 2 1 1 1 1 1 1 1 1 1 1 1 1 1 1 1 1 1 1 1 1 1 1 1 1 1 1 1 1 1 1
2 2 2 3 3 3 4 3 3 3 2 2 2 1 1 1 1 1 1 1 1 1 1 1 1 1 1 1 1 1 1 1 1 1 1 1 1 1 1 1 1 1 1
1 2 2 2 3 3 3 3 3 3 3 2 2 1 1 1 1 1 1 1 1 1 1 1 1 1 1 1 1 1 1 1 1 1 1 1 1 1 1 1 1 1 1
1 2 2 2 2 2 3 3 4 4 3 3 2 2 1 1 1 1 1 1 1 1 1 1 1 1 1 1 1 1 1 1 1 1 1 1 1 1 1 1 1 1 1
2 2 2 2 2 2 2 3 4 4 3 3 2 2 2 1 1 1 1 1 1 1 1 1 1 1 1 1 1 1 1 1 1 1 1 1 1 1 1 1 1 1 1
3 3 3 3 3 3 3 3 3 3 3 3 2 2 2 1 1 1 1 1 1 1 1 1 1 1 1 1 1 1 1 2 2 2 2 2 2 2 2 1 1 1 1
5 4 3 3 3 3 3 3 3 3 3 3 3 2 2 2 1 1 1 1 1 1 1 1 1 1 1 1 1 2 2 2 2 3 3 3 3 3 3 3 2 2 2
5 4 3 3 3 3 3 3 3 3 3 3 3 3 2 2 1 1 1 1 1 1 1 1 1 1 1 1 2 2 3 3 3 3 4 4 4 5 6 5 4 3 2
4 3 2 2 3 3 3 3 3 2 2 3 3 3 3 2 2 2 1 1 1 1 1 1 1 1 2 2 2 3 3 4 4 4 4 4 4 5 6 7 6 4 3
4 3 3 3 3 4 3 3 3 3 2 2 3 3 3 3 3 2 2 2 2 2 2 2 2 2 2 2 3 3 3 3 3 3 3 4 4 5 6 7 7 5 4
4 4 4 4 5 5 4 3 3 3 3 2 2 3 3 3 4 3 3 3 3 4 4 4 3 3 2 2 3 2 2 2 3 3 3 3 4 5 6 6 6 5 4
4 5 5 6 6 5 4 4 3 3 3 3 3 3 3 4 4 4 4 4 5 7 8 7 6 4 3 2 2 2 2 2 2 2 2 3 4 5 6 6 5 4 4
5 6 7 6 6 5 4 4 3 3 4 4 4 4 4 5 5 5 5 5 6 8 10 9 8 5 4 2 2 2 2 1 1 2 2 2 3 4 5 5 5 4 3
6 7 8 7 7 6 6 5 5 5 5 6 6 6 5 5 5 5 5 6 7 7 7 8 7 6 4 3 3 3 2 2 2 2 2 2 2 3 4 4 4 4 3
6 7 7 7 8 8 7 7 6 7 7 8 8 7 6 6 6 6 6 7 8 7 6 6 6 6 5 5 5 5 4 4 3 3 2 2 2 2 3 3 3 3 3
7 7 6 7 7 8 8 7 7 7 8 8 8 8 8 7 7 7 8 9 10 8 7 6 6 7 7 5 4 5 6 5 5 4 3 2 2 2 2 2 1 2 2
10 8 6 6 6 7 7 7 6 7 7 8 8 8 9 9 8 8 9 10 10 9 7 6 7 8 7 4 2 3 5 5 5 5 4 2 2 2 2 2 2 1 1
10 8 6 6 7 7 7 7 7 7 8 8 9 9 9 10 11 11 11 11 11 10 8 7 7 7 6 3 1 2 4 5 4 4 4 3 2 2 2 2 3 2 2
8 7 6 6 7 8 8 8 8 8 8 9 10 10 10 11 12 12 12 13 14 13 10 8 7 6 5 3 1 2 4 5 5 5 4 4 3 3 2 3 3 3 3
8 7 7 7 7 7 8 9 9 9 9 11 13 13 12 10 10 11 12 14 16 16 14 11 8 6 4 2 1 2 4 6 6 6 6 5 4 2 2 3 4 3 3
9 9 9 8 8 8 8 9 10 11 13 16 18 16 11 9 9 10 12 14 17 17 16 12 9 7 5 3 1 1 4 6 7 7 7 6 3 1 1 2 3 3 2
12 10 9 8 8 8 9 9 10 12 15 18 18 14 10 8 9 11 13 15 17 17 15 12 10 7 5 4 2 1 2 5 7 8 7 5 2 0 0 1 2 2 1
12 11 9 8 8 9 10 10 9 11 13 15 14 11 9 9 10 12 14 17 19 17 14 12 9 7 6 5 4 2 1 3 6 7 6 3 1 0 0 0 1 1 1
9 10 10 10 10 11 12 11 10 9 10 12 12 11 10 10 12 13 15 18 18 16 13 12 10 8 7 6 5 4 2 2 4 5 3 2 0 0 0 0 0 1 1
7 8 11 12 11 12 13 12 11 9 9 11 12 12 12 12 13 13 14 14 13 12 10 9 8 7 6 5 4 4 3 3 3 3 2 1 0 0 1 1 1 2 2
7 7 9 10 11 11 13 13 11 9 8 9 10 12 13 13 13 12 10 9 8 7 6 5 5 5 4 3 2 2 2 2 2 2 1 1 1 1 1 1 2 2 3

GEFSMW_con_maxscp_198.txt.gz
SCP
3 4 5 5 6 8 9 8 6 5 5 5 4 3 2 3 3 3 3 3 2 2 2 1 1 2 2 2 1 1 1 1 1 1 1 1 1 1 2 2 2 2 1
3 4 6 6 7 8 8 7 5 5 5 5 4 3 3 3 3 3 3 3 2 2 2 1 1 1 1 1 1 1 1 1 1 1 1 1 1 1 1 2 2 2 2
3 4 6 7 7 7 6 5 5 5 5 5 4 3 3 3 3 3 3 3 2 2 2 1 1 1 1 1 1 2 1 1 1 1 1 1 1 1 1 2 2 2 2
3 4 6 7 7 6 5 5 5 5 5 5 4 4 3 3 3 3 3 3 2 2 2 1 1 1 1 1 2 2 1 1 1 1 1 2 2 2 2 2 1 1 2
3 4 6 6 6 6 5 5 5 5 5 4 4 4 3 3 3 3 3 3 2 2 2 2 1 1 1 1 2 2 2 2 2 2 2 2 3 3 2 2 2 2 2
3 5 7 8 7 6 6 6 6 5 5 4 4 4 4 3 3 4 4 3 3 2 2 2 2 2 2 2 2 2 2 2 3 3 3 3 3 3 3 2 2 2 2
4 5 8 10 9 7 7 7 7 6 5 5 4 4 4 4 4 4 4 4 3 3 3 3 3 3 2 2 3 3 3 4 4 4 4 3 3 3 3 3 3 3 3
5 6 9 10 9 8 8 8 7 7 6 5 5 4 4 4 4 4 4 4 4 4 4 4 4 4 4 3 3 4 4 4 5 4 4 4 4 4 4 4 5 5 5
6 7 9 9 8 8 9 9 9 8 8 7 5 5 5 4 4 4 4 4 4 5 6 5 5 5 5 4 4 4 4 4 4 4 4 5 5 5 5 6 7 7 7
6 8 9 8 7 8 9 9 11 11 10 8 6 5 5 5 4 4 4 4 4 6 7 7 6 6 6 6 5 4 4 4 4 4 4 5 5 6 6 7 9 10 9
6 8 8 8 7 9 10 10 12 13 12 9 8 7 6 6 5 4 4 4 4 7 9 8 7 6 6 6 6 5 4 4 5 5 5 6 7 7 7 8 9 10 11
7 8 8 8 8 9 10 11 12 14 13 11 9 8 7 7 6 6 5 5 5 8 9 9 8 7 6 6 5 5 4 4 5 6 6 7 8 9 8 8 8 9 10
9 9 9 9 9 10 10 11 12 13 13 12 11 10 9 9 8 7 7 7 7 8 10 10 8 7 5 5 5 4 4 4 5 6 7 7 8 9 8 7 7 7 7
12 11 11 12 12 12 11 11 12 11 11 12 13 13 12 11 10 9 9 8 8 9 10 9 8 6 5 4 4 4 3 3 4 6 6 7 7 7 6 5 5 4 4
14 14 14 15 15 14 13 12 11 11 11 11 12 12 12 11 10 10 9 9 8 9 9 9 7 6 4 4 4 4 3 3 4 5 6 6 6 5 4 3 3 3 3
16 16 17 17 16 14 13 12 12 13 13 12 12 11 10 9 9 8 8 8 9 9 9 9 8 6 5 4 4 4 4 4 5 6 6 6 5 4 3 3 3 3 3
19 18 17 16 15 12 12 13 14 16 16 15 13 11 9 8 8 8 8 9 10 10 10 10 9 8 6 4 3 4 5 5 6 7 7 5 4 4 4 4 3 3 3
21 17 13 13 13 11 11 14 17 18 18 17 16 14 12 10 9 9 9 10 12 12 12 12 12 10 8 5 3 4 6 8 8 8 7 6 5 4 4 5 5 6 5
16 13 11 12 14 14 13 15 17 18 19 19 19 18 17 15 13 12 12 13 13 14 14 15 15 13 10 5 3 4 9 12 11 9 7 7 5 3 3 4 6 7 8
11 12 12 14 16 18 18 17 16 16 17 18 20 21 21 18 16 15 15 15 14 13 15 16 17 16 13 7 3 5 11 15 13 10 8 6 4 2 1 3 5 7 8
13 15 16 17 18 21 21 19 15 14 15 17 18 20 20 18 16 16 15 14 12 12 14 16 17 17 14 8 4 5 12 16 14 11 7 5 3 1 1 2 4 5 6
16 17 18 17 19 22 22 19 16 15 16 18 18 19 18 15 14 13 12 11 11 11 12 14 14 15 14 8 4 4 8 13 13 9 6 3 1 0 0 1 3 4 4
13 13 13 13 17 21 22 20 18 16 16 18 18 18 16 13 11 10 10 10 10 9 10 10 11 12 12 9 5 3 3 6 8 6 3 1 0 0 0 1 1 3 3
7 8 8 9 13 17 18 17 17 16 15 15 15 14 12 10 9 8 8 9 9 8 8 8 9 10 10 8 6 3 2 2 3 2 1 1 1 1 1 1 1 3 4
6 6 6 7 9 10 11 11 13 14 13 12 11 9 9 8 8 7 6 6 6 6 6 7 8 9 8 7 6 4 2 2 1 2 2 2 2 1 1 2 2 3 4
6 6 6 6 6 6 6 8 9 10 10 10 9 8 8 8 8 7 6 4 4 5 5 6 7 7 6 5 4 3 3 2 2 2 2 2 2 2 2 2 2 3 4

GEFSMW_con_maxscp_204.txt.gz
SCP
3 3 3 2 2 2 2 2 2 2 2 2 2 1 1 1 1 1 1 1 1 1 1 1 0 0 0 0 0 0 0 0 0 0 0 0 0 0 0 0 0 0 0
3 3 3 2 2 2 2 2 2 2 2 2 2 1 1 1 1 1 1 1 1 1 1 1 0 0 0 0 0 0 0 0 0 0 0 0 0 0 0 0 0 0 0
4 4 4 3 2 2 2 2 2 2 2 2 1 1 1 1 1 1 1 1 1 1 1 1 0 0 0 0 0 0 0 0 0 0 0 0 0 0 0 0 0 0 0
5 5 5 4 3 2 2 2 2 2 2 1 1 1 1 1 1 1 1 1 1 1 1 1 1 1 1 0 0 0 0 0 0 0 0 0 0 0 0 0 0 0 0
6 5 5 5 4 3 3 3 3 2 2 2 2 1 1 1 1 1 1 1 1 1 1 1 1 1 1 1 0 0 0 0 0 0 0 0 0 0 0 0 0 0 0
6 6 7 7 6 5 4 4 4 3 2 2 2 1 1 1 1 1 1 1 1 1 1 1 2 2 1 1 1 0 0 1 1 1 1 1 1 1 1 1 1 1 1
7 7 8 9 8 6 5 5 5 4 3 3 2 2 2 1 1 1 1 1 1 1 1 1 2 2 2 1 1 1 1 1 1 1 1 1 1 1 2 2 2 2 1
7 7 9 11 9 7 6 5 5 4 4 4 3 2 2 2 2 1 2 2 2 1 1 2 2 2 2 1 1 1 1 1 1 1 1 1 1 1 2 3 3 3 2
6 7 10 12 10 8 7 6 5 5 5 5 4 2 2 2 2 2 2 2 2 2 2 2 3 3 2 2 2 2 2 2 1 1 1 1 1 1 2 2 3 3 4
7 9 13 14 11 9 8 8 6 5 6 6 5 3 3 3 2 2 2 2 2 2 2 3 3 3 3 2 2 2 2 1 1 1 1 1 1 1 1 2 2 2 3
9 12 14 13 11 11 11 9 7 6 7 8 6 4 4 4 3 3 3 3 2 3 3 4 4 3 3 2 2 2 2 1 1 1 1 1 1 1 1 1 1 1 2
13 14 13 12 11 12 11 9 7 7 10 11 8 6 5 5 5 5 5 5 4 4 4 4 4 3 3 2 2 2 1 1 1 1 1 1 1 1 1 1 1 1 1
16 15 13 11 11 21 28 19 7 9 13 13 9 7 7 7 7 7 6 6 6 5 5 4 4 4 3 3 2 2 2 1 1 1 1 1 1 1 1 1 1 2 2
16 15 13 10 9 27 45 27 8 10 14 13 10 7 7 8 9 9 8 7 7 7 6 5 5 5 4 3 3 2 2 2 1 1 1 1 1 1 1 1 2 2 2
16 15 13 10 8 19 27 20 9 10 12 11 8 7 7 8 9 10 9 8 7 7 7 6 6 6 5 4 4 3 4 3 2 2 1 1 1 1 1 1 2 2 2
18 17 14 11 9 9 9 8 8 8 9 8 7 6 7 8 9 10 10 9 8 7 7 7 6 6 6 5 4 4 5 5 4 3 2 2 2 1 1 1 1 2 2
20 19 15 10 9 9 8 7 6 7 7 7 7 7 7 7 8 9 10 10 10 9 8 7 7 6 6 5 4 4 5 5 5 4 3 3 2 2 2 1 1 1 2
21 18 14 9 8 8 8 7 6 6 7 7 7 8 8 7 7 8 10 11 11 11 10 9 8 7 7 5 4 4 5 5 5 5 4 3 3 2 2 2 2 2 2
17 15 11 8 8 8 9 8 8 9 10 9 8 8 9 9 8 8 8 9 11 12 12 11 10 9 7 5 3 3 4 5 5 5 5 4 3 2 2 2 2 2 2
11 12 12 10 10 11 11 10 10 12 13 10 8 8 9 10 11 10 9 8 10 13 14 14 12 10 8 4 2 3 4 4 4 5 6 5 3 2 1 1 2 2 2
8 10 11 11 11 11 12 11 10 10 10 8 7 7 8 10 13 12 9 8 9 12 15 15 13 11 7 3 2 2 3 4 5 6 7 6 4 2 1 1 1 2 2
8 8 9 8 8 9 9 9 7 6 5 5 5 7 8 10 13 11 8 7 8 10 13 13 12 9 6 3 2 2 2 3 4 5 7 7 4 2 0 0 1 1 1
8 7 6 4 4 4 5 4 4 4 4 4 5 6 7 9 9 8 5 5 7 8 9 9 8 7 5 3 3 2 2 2 3 4 4 4 3 1 0 0 0 0 0
6 5 3 2 1 1 1 1 2 2 3 3 4 5 6 6 6 5 4 4 4 5 5 5 5 5 4 3 3 3 2 2 2 2 2 2 1 1 0 0 0 0 0
2 2 1 1 1 1 1 1 1 1 1 2 2 4 4 4 4 3 3 2 2 3 3 3 3 3 3 3 2 2 2 2 2 1 1 1 1 0 0 0 0 0 0
1 1 1 1 1 1 1 1 1 1 1 1 2 2 3 4 3 3 2 2 1 1 1 2 2 3 3 2 1 1 1 1 1 1 1 1 1 0 0 0 0 0 0

GEFSMW_con_maxscp_210.txt.gz
SCP
1 1 1 2 1 1 1 1 1 1 0 1 1 1 1 1 0 0 0 0 0 0 0 0 0 0 0 0 0 0 0 0 0 0 0 0 0 0 0 0 0 0 0
1 1 1 2 2 1 1 1 1 1 1 1 1 1 1 1 1 1 1 0 0 0 0 0 0 0 0 0 0 0 0 0 0 0 0 0 0 0 0 0 0 0 0
1 1 1 1 1 1 1 1 1 1 1 1 1 1 1 1 1 1 1 1 1 1 1 1 1 1 1 0 0 0 0 0 0 0 0 0 0 0 0 0 0 0 0
2 2 1 1 1 1 1 1 1 1 1 1 2 1 1 1 1 1 1 1 1 1 1 1 2 2 1 1 0 0 0 0 0 0 0 0 0 0 0 0 0 0 0
3 2 2 1 1 2 2 2 2 1 1 2 2 2 2 2 2 2 2 1 1 1 1 2 3 4 3 2 1 0 0 0 0 0 0 0 0 0 0 0 0 0 0
4 3 2 1 1 2 2 2 2 1 2 2 2 2 2 2 2 2 2 1 1 1 2 2 4 4 4 3 1 1 0 0 0 0 0 0 0 0 0 0 0 0 0
4 4 3 2 2 2 2 2 2 2 2 3 3 3 3 3 2 1 1 1 1 2 2 3 3 4 3 2 1 1 0 0 0 1 1 1 0 0 0 0 0 0 0
5 5 4 3 3 3 3 3 2 2 2 3 4 4 5 5 3 1 1 1 1 2 2 3 3 3 2 2 1 1 0 1 1 1 1 1 1 0 0 0 1 1 1
5 5 4 3 3 3 4 4 3 3 3 3 4 4 6 6 5 2 1 1 1 2 3 3 3 2 2 2 1 1 1 1 1 1 1 1 1 0 0 1 1 1 1
4 4 4 4 4 4 5 5 5 5 5 5 4 4 5 6 6 4 2 2 2 2 3 3 3 2 2 2 2 1 1 1 2 2 1 1 1 1 1 1 1 1 1
4 4 5 6 6 6 7 8 8 8 7 6 4 3 4 6 7 6 4 3 3 3 3 3 2 2 2 2 3 3 2 2 2 3 2 2 1 1 1 1 1 1 1
3 4 6 9 9 9 9 10 10 9 8 6 5 4 4 6 8 7 6 5 4 3 3 3 3 3 3 3 4 4 4 3 3 3 3 2 2 1 1 1 1 1 1
4 5 7 9 10 10 10 10 9 8 7 6 5 4 4 6 9 9 7 5 4 4 4 4 4 4 3 4 4 4 4 4 3 3 3 2 2 1 1 1 1 1 1
5 5 6 8 9 10 10 9 8 7 7 6 5 4 5 7 9 9 6 5 4 4 5 5 5 5 4 4 5 5 5 4 4 3 2 2 2 2 1 1 1 1 1
6 6 7 8 9 9 8 9 8 7 6 5 4 4 5 7 9 9 7 5 5 5 5 6 6 6 6 5 5 5 5 5 5 4 3 2 2 2 2 2 2 2 2
7 7 8 9 9 9 8 8 8 8 8 7 5 4 5 8 10 10 8 5 5 5 7 8 8 8 7 5 4 5 5 6 5 4 3 3 2 2 2 2 2 2 1
7 7 7 8 8 9 9 8 8 9 9 8 6 5 6 8 12 12 9 7 5 6 8 10 10 9 7 5 4 4 5 6 6 5 4 4 3 2 2 2 2 1 1
6 6 7 7 7 8 8 8 8 9 9 7 6 6 6 8 11 11 10 8 7 7 9 9 9 8 7 5 3 3 4 5 6 5 5 4 4 3 3 3 3 2 2
6 6 6 6 6 7 7 7 7 7 7 6 6 6 6 7 8 9 9 9 7 7 7 7 7 7 6 4 3 3 4 6 6 6 5 5 4 4 3 4 4 3 3
5 5 5 5 5 5 5 5 5 5 5 5 6 7 7 8 7 7 7 7 6 5 6 6 6 6 5 4 3 3 4 6 7 6 5 4 3 3 3 3 4 4 3
5 4 4 3 3 4 5 5 5 4 4 5 6 7 9 9 9 8 7 6 6 5 5 6 5 5 4 3 2 2 3 4 5 5 5 3 2 2 1 2 3 3 3
4 3 3 2 3 4 5 5 5 4 4 5 6 8 10 11 10 9 8 8 6 5 5 5 5 4 4 3 1 1 1 2 3 3 3 3 2 1 1 1 1 2 2
2 2 2 2 3 4 5 5 4 4 5 5 6 9 10 11 11 10 9 9 8 6 5 5 5 4 4 3 2 1 1 1 1 2 2 2 2 1 1 1 1 1 1
2 2 2 3 3 3 3 3 2 2 3 5 6 7 7 8 8 7 8 9 10 9 7 5 4 4 4 3 3 2 2 1 1 2 2 2 2 2 2 2 1 1 2
1 1 2 2 2 2 1 1 1 1 2 3 4 4 3 3 3 3 4 6 8 8 6 4 3 2 2 2 2 2 2 1 1 1 2 2 2 3 3 3 2 2 2
1 1 1 1 1 1 1 0 0 0 1 1 2 2 2 2 1 1 1 3 5 5 3 2 2 1 1 1 1 1 1 1 0 1 1 2 2 2 3 2 2 2 2

GEFSMW_con_maxscp_216.txt.gz
SCP
1 1 1 2 2 2 2 3 3 4 3 2 1 1 1 1 0 1 1 1 1 1 1 1 2 2 2 1 1 2 1 1 1 1 0 0 0 0 0 0 1 0 0
2 1 2 2 2 2 2 2 3 4 3 2 1 1 1 1 1 1 1 1 1 1 1 2 2 2 2 1 2 2 1 1 1 1 1 1 1 1 0 0 0 1 1
2 2 2 2 2 2 2 2 3 3 3 2 1 1 1 1 1 1 1 1 1 2 2 2 2 2 2 2 2 2 1 1 1 1 1 1 1 1 1 1 1 1 1
2 2 2 1 2 2 2 2 2 3 2 2 1 1 1 1 1 1 1 1 1 2 2 2 3 3 2 2 2 2 2 1 1 1 1 1 1 1 1 1 1 1 1
2 2 2 1 1 2 2 2 2 2 2 2 2 2 1 1 1 2 2 2 2 2 2 2 3 3 3 3 2 2 2 1 1 1 1 1 1 1 1 1 1 1 1
4 3 3 3 2 2 3 3 3 3 2 2 2 2 2 2 2 3 3 3 3 3 3 3 3 3 3 3 3 3 2 2 2 2 2 2 2 1 1 1 1 1 1
6 5 5 4 4 4 4 4 4 3 3 3 3 3 3 3 3 4 5 5 4 4 4 3 3 3 3 3 3 3 3 3 3 3 3 3 2 2 1 1 1 1 1
5 5 4 4 4 5 5 5 5 4 4 4 4 5 5 4 3 4 5 6 5 5 5 4 4 4 3 3 3 4 4 5 5 5 5 4 3 2 2 2 2 2 1
3 3 4 4 4 4 5 5 5 5 5 6 6 6 6 5 4 4 5 5 5 5 5 4 4 4 4 4 4 4 4 5 6 5 5 4 3 2 3 3 3 2 2
4 4 5 4 4 4 4 5 5 6 7 8 8 7 7 7 7 7 6 5 5 4 4 4 4 4 4 4 4 4 4 5 5 5 4 4 3 3 3 3 3 3 2
4 5 5 5 4 4 4 5 6 7 8 10 10 9 8 9 10 10 8 6 5 4 4 4 4 4 4 4 4 4 5 5 5 5 5 5 4 4 4 4 3 2 2
4 4 4 5 5 5 5 6 7 7 8 10 9 9 10 10 10 8 6 5 5 4 4 4 4 4 5 5 5 5 5 5 6 6 6 6 6 6 5 5 4 3 2
3 3 4 6 7 7 6 7 6 6 8 9 9 11 11 10 8 6 5 5 4 4 4 4 5 4 5 5 5 5 5 6 6 6 6 7 7 7 6 5 5 4 3
3 4 5 6 7 7 7 6 6 6 7 8 10 11 12 10 7 5 5 5 5 5 5 5 4 4 5 6 6 6 7 7 7 7 7 7 6 6 6 6 6 5 5
4 5 5 5 6 6 6 6 6 7 8 9 10 11 10 9 7 5 5 6 6 6 6 6 5 5 5 6 7 7 8 9 10 10 8 7 6 5 5 6 7 7 6
5 5 5 5 5 6 6 6 7 8 8 9 10 9 9 8 6 6 6 7 7 8 8 7 6 5 5 6 6 7 8 10 11 11 9 7 5 4 4 4 5 6 6
4 5 5 5 5 6 6 7 8 8 9 9 10 10 10 9 7 6 7 8 9 10 11 9 7 6 5 5 5 5 7 9 10 10 9 7 6 5 5 4 4 4 4
5 6 6 6 6 6 6 7 8 9 9 10 11 11 10 9 8 7 7 9 12 13 14 12 9 6 5 4 4 4 5 7 8 8 8 7 6 6 6 6 6 5 5
7 8 8 7 6 6 6 6 7 9 11 11 11 9 8 8 8 7 8 10 13 14 14 13 9 6 4 3 2 3 5 6 7 7 7 6 6 6 7 7 8 7 7
8 9 8 7 7 6 5 6 7 9 10 10 9 8 8 8 8 7 8 9 11 12 11 11 8 6 5 3 2 2 4 6 6 6 6 5 5 5 6 7 8 8 7
7 7 7 6 6 6 6 6 7 7 8 8 8 8 9 8 7 7 7 7 8 9 10 10 8 7 5 4 2 2 3 5 6 6 5 4 3 3 3 4 6 6 5
5 6 6 6 6 7 7 7 6 6 5 6 7 8 9 9 7 6 6 6 8 9 10 9 8 7 6 5 3 2 2 4 5 5 5 4 3 2 1 2 2 3 3
6 6 6 7 8 9 8 7 7 6 5 5 6 7 8 9 8 6 6 6 8 10 10 10 9 9 8 6 4 2 2 2 4 5 5 3 2 1 1 1 1 1 2
6 6 7 8 10 10 9 8 7 5 5 5 5 5 6 8 8 7 6 6 8 10 12 12 11 10 9 8 6 5 4 3 5 6 5 3 2 2 2 2 2 2 3
7 7 7 7 8 8 8 7 6 5 5 4 4 4 5 7 7 7 6 5 6 8 9 10 11 11 9 7 7 6 5 5 6 7 7 5 4 3 3 3 4 4 4
9 8 7 6 6 6 6 6 5 5 4 4 3 4 5 6 6 6 5 3 3 4 5 7 10 11 8 6 5 5 4 4 5 7 7 6 5 4 3 3 4 5 6

GEFSMW_con_maxscp_222.txt.gz
SCP
2 2 2 3 3 4 4 4 5 5 4 3 4 3 2 2 2 2 2 2 2 2 2 2 3 2 2 1 1 2 1 1 1 1 1 1 1 1 1 1 1 1 1
3 3 3 3 3 4 4 4 5 5 4 4 4 3 2 2 2 2 2 2 2 2 2 3 3 2 2 1 1 2 2 2 1 1 1 1 1 1 1 1 1 1 1
5 5 4 4 4 4 4 4 5 5 4 3 4 3 2 2 2 2 2 2 2 2 2 3 3 2 2 2 2 2 2 2 2 1 1 1 1 1 1 1 1 2 2
8 6 5 5 5 5 5 5 6 5 4 3 3 3 3 3 3 3 3 3 2 2 2 2 3 3 2 2 2 3 3 3 2 2 2 1 1 1 1 1 1 1 1
6 5 5 6 6 6 7 8 9 8 6 5 4 4 3 3 3 3 3 3 2 2 2 2 2 3 3 3 3 3 3 3 3 2 2 2 2 1 1 1 1 1 1
5 6 6 7 8 9 10 12 13 13 10 8 6 5 4 4 4 4 4 3 3 3 2 3 3 3 3 3 3 3 3 3 3 3 2 2 2 2 1 1 1 1 1
7 8 8 9 10 12 13 15 16 17 15 12 9 7 5 5 5 5 5 4 3 3 4 4 4 3 3 3 3 3 3 4 4 3 2 2 2 2 2 2 2 2 2
9 9 9 10 10 11 12 13 16 19 20 18 14 10 8 8 7 6 6 5 4 5 5 5 5 4 4 4 4 4 4 4 4 3 3 2 2 2 2 3 3 2 2
8 8 9 10 10 10 10 12 16 20 22 22 18 15 13 11 10 8 6 5 6 7 7 6 5 5 5 5 5 5 5 5 4 4 3 3 3 3 3 4 4 3 3
6 7 10 12 12 11 10 12 16 20 21 21 20 17 16 15 13 9 6 5 6 8 7 6 5 6 6 6 5 5 5 5 5 5 4 4 4 4 4 4 4 4 4
5 6 8 10 12 12 12 12 15 19 20 19 18 17 16 15 12 8 6 5 6 7 6 6 6 6 7 6 6 6 6 6 6 6 6 5 5 5 5 4 5 5 5
7 8 7 7 9 10 12 13 15 16 17 17 17 15 14 13 10 8 6 6 6 7 7 7 7 8 7 5 5 6 6 7 7 7 7 6 6 6 6 6 6 5 6
11 11 10 8 8 9 11 13 14 15 16 17 16 14 13 13 12 10 9 8 8 8 8 9 9 8 6 5 5 6 7 8 8 7 7 6 6 7 7 7 7 6 6
13 13 13 12 11 11 12 12 12 13 15 16 16 15 15 15 15 14 12 11 10 10 10 11 11 9 7 6 6 6 7 7 7 6 6 6 7 7 7 7 8 8 7
13 14 14 13 13 13 13 13 13 14 16 19 20 18 18 17 17 16 14 14 13 12 12 12 11 10 8 8 7 7 7 7 6 5 6 6 7 7 6 6 7 8 8
12 12 12 12 12 12 12 14 14 16 20 23 23 21 19 19 18 17 16 15 14 13 12 12 12 11 9 7 7 8 8 8 6 5 6 6 6 6 6 5 5 6 6
8 8 8 9 9 10 11 12 14 17 21 24 23 21 20 19 18 18 18 16 14 13 11 12 13 13 10 6 5 6 7 7 6 6 6 6 5 5 5 5 4 5 5
7 7 8 8 8 8 10 12 14 16 19 21 21 20 21 18 17 18 18 17 15 13 11 12 14 14 10 5 3 4 5 5 6 6 5 5 4 4 4 4 4 5 5
8 9 9 9 9 10 13 15 16 17 18 20 20 20 19 17 15 16 17 17 16 15 13 12 13 13 9 4 2 2 4 5 5 5 5 4 4 3 3 3 4 5 5
8 9 10 11 12 15 18 20 19 19 20 22 22 20 16 14 13 13 14 14 14 15 14 12 11 9 6 3 2 2 4 5 5 5 4 3 3 2 2 2 3 4 4
8 9 11 13 17 22 26 27 26 24 24 24 22 19 15 12 10 10 10 10 11 12 12 10 8 7 5 3 2 2 3 5 5 5 4 3 2 2 1 2 2 3 3
9 10 12 15 19 25 31 34 33 29 25 21 18 16 14 12 10 8 8 9 10 10 9 8 7 6 5 3 2 1 2 3 5 5 4 3 2 1 1 1 1 2 2
10 10 12 14 16 21 27 30 29 25 20 16 14 13 12 12 10 8 7 8 9 9 9 8 8 6 6 5 4 2 1 1 3 4 4 2 1 1 1 1 1 1 2
9 10 11 13 13 15 19 21 21 18 16 14 11 10 9 9 9 8 7 7 8 8 9 9 9 9 8 7 5 4 3 2 2 3 3 3 2 2 2 3 3 3 3
9 10 12 13 13 13 14 16 16 15 15 13 11 9 8 8 7 7 6 6 7 7 7 8 9 9 8 6 5 4 4 4 3 3 4 5 4 4 4 5 6 5 5
10 10 12 13 13 12 12 13 13 14 14 13 11 10 9 8 7 6 5 5 5 5 5 6 7 8 7 5 4 3 4 4 4 3 4 5 6 5 6 7 8 7 6

GEFSMW_con_maxscp_228.txt.gz
SCP
3 3 3 3 3 2 2 2 2 1 1 1 1 1 1 1 2 2 1 1 1 1 1 1 1 1 1 1 1 1 1 1 1 1 1 0 0 0 0 0 0 0 0
3 4 3 3 3 3 2 2 2 2 1 1 1 1 1 1 1 1 1 1 1 1 1 1 1 1 1 1 1 1 1 1 1 1 1 0 0 0 0 0 0 0 0
4 5 4 4 3 3 3 2 2 2 2 1 1 1 1 1 1 1 1 1 1 1 1 1 1 1 1 1 1 1 1 1 1 1 0 0 0 0 0 0 0 0 0
5 6 6 5 5 4 3 3 3 3 2 2 2 1 1 1 1 1 1 1 1 1 1 1 1 1 1 1 1 1 1 1 1 1 1 1 0 0 0 0 0 0 0
5 6 6 6 6 6 4 4 4 4 4 3 2 2 1 1 1 1 1 1 1 1 1 1 1 1 1 1 2 1 1 1 1 1 1 1 1 1 0 0 0 0 0
5 6 6 7 8 7 6 6 6 6 6 5 3 2 2 2 2 2 2 1 1 1 1 1 1 1 1 2 2 2 1 1 1 1 1 1 1 1 1 1 0 0 0
5 5 5 7 8 8 7 7 7 7 7 5 4 2 2 2 2 2 2 2 1 1 1 1 2 2 2 2 2 2 1 1 1 1 1 1 1 1 1 1 1 0 0
4 4 4 6 7 7 7 7 7 8 7 6 4 3 3 2 2 2 2 2 2 1 1 1 2 2 2 2 2 2 2 2 2 2 2 2 2 1 1 1 1 1 1
3 3 4 5 5 6 7 7 7 8 8 7 5 4 3 3 2 2 2 2 2 2 2 2 2 2 3 2 2 2 2 2 2 2 2 2 2 2 2 2 2 1 1
3 3 4 4 4 5 5 5 6 7 8 8 7 5 4 3 3 3 3 3 3 2 2 2 2 3 3 3 3 2 2 3 3 3 3 3 3 3 3 2 2 2 1
3 4 4 4 3 4 4 4 4 6 8 9 8 7 6 5 4 4 4 4 3 3 3 2 3 3 4 4 3 3 3 3 3 3 3 3 3 3 3 3 2 2 2
4 4 4 4 3 3 3 4 4 6 7 9 10 9 8 7 6 6 5 4 4 4 4 3 3 4 4 4 4 3 2 2 2 3 2 2 2 2 2 2 2 2 2
5 5 4 4 3 3 4 5 6 6 7 9 10 9 8 8 7 6 6 5 4 4 4 4 4 5 5 4 3 3 2 2 2 2 2 2 2 2 2 2 2 3 3
5 5 5 5 4 4 5 6 6 6 7 8 9 8 7 7 7 6 5 4 4 4 5 5 6 6 5 4 3 3 2 2 2 2 2 2 2 2 3 3 3 3 3
7 7 7 7 6 6 6 7 6 6 6 7 7 7 6 7 7 6 5 5 5 6 7 7 7 6 5 4 4 3 3 2 2 2 2 2 2 2 2 2 3 3 3
13 12 11 11 10 9 8 7 7 7 7 7 7 7 7 7 7 7 7 6 7 8 10 9 8 6 5 4 4 4 4 3 2 2 2 2 2 2 2 2 2 2 2
19 18 16 14 12 10 8 7 8 9 10 10 9 10 10 10 9 8 8 8 8 10 11 10 7 5 4 4 3 4 5 4 3 2 2 2 1 1 1 1 1 1 1
21 19 16 13 11 9 8 8 9 11 12 12 12 13 13 13 11 9 8 8 9 9 10 9 7 5 4 3 2 3 5 6 5 3 3 2 2 2 1 1 1 1 1
18 15 12 10 8 8 8 9 11 13 14 15 15 16 17 16 13 11 10 9 8 7 7 7 6 5 4 3 2 3 6 7 6 4 3 2 2 1 1 1 1 1 1
14 12 11 10 9 8 9 11 12 14 16 17 18 21 21 19 16 15 13 10 7 5 4 5 5 4 4 3 2 3 5 7 6 4 3 2 1 1 1 1 2 2 2
15 14 14 14 11 9 10 11 12 14 16 18 22 25 24 20 16 14 12 9 6 4 3 4 4 4 4 3 2 2 4 5 5 4 3 2 1 1 1 1 1 2 2
15 16 16 15 11 9 10 11 11 13 17 21 25 27 23 17 12 10 8 6 4 3 3 3 3 3 3 3 2 1 2 4 4 4 3 2 1 1 0 0 1 1 1
10 11 13 12 10 9 11 11 12 15 19 23 25 22 17 12 8 7 6 4 4 3 3 2 2 2 3 3 3 2 1 2 3 4 3 2 1 1 0 0 0 1 1
5 6 8 8 8 9 10 12 13 17 20 21 19 15 11 9 7 6 5 5 4 4 3 2 2 2 3 3 4 4 3 2 3 3 3 2 2 1 1 1 0 1 1
4 5 5 6 6 7 8 10 12 14 15 14 12 11 10 8 6 5 4 4 4 3 3 3 2 2 2 3 4 5 4 4 3 4 4 4 3 3 2 2 1 1 1
5 5 4 4 5 5 6 8 10 11 10 9 9 9 9 7 5 4 3 3 3 2 2 3 2 2 1 2 3 3 4 4 4 4 5 5 5 4 3 3 2 2 2

GEFSMW_con_maxscp_234.txt.gz
SCP
1 1 1 1 2 2 2 1 1 1 1 1 0 0 0 0 0 0 0 0 0 0 0 0 0 1 1 1 1 1 1 1 1 1 0 0 0 0 0 0 0 0 0
2 2 1 1 2 2 2 2 1 1 1 1 1 0 0 0 0 0 0 0 0 0 0 0 0 0 1 1 1 1 1 1 1 1 1 0 0 0 0 0 0 0 1
2 2 2 1 2 2 2 2 1 1 1 1 1 1 1 0 0 0 0 0 0 0 0 0 0 0 0 1 1 1 1 1 1 1 1 1 1 0 0 0 1 1 1
2 2 2 2 2 2 2 2 1 1 1 1 1 1 1 1 1 1 1 0 0 0 0 0 0 0 0 1 1 1 1 1 1 1 1 1 1 1 1 1 1 1 1
1 2 2 2 2 2 2 2 1 1 1 2 1 1 1 1 1 1 1 1 0 0 0 0 0 0 0 1 1 1 1 1 1 1 1 1 1 1 1 1 1 1 1
2 2 2 2 2 2 2 2 2 2 2 2 2 2 1 1 1 1 1 1 1 1 1 0 0 0 1 1 1 1 1 1 1 1 2 2 1 1 1 1 1 1 1
2 2 2 2 3 3 2 2 2 2 3 3 3 2 2 2 2 1 1 1 1 1 1 1 1 1 1 1 1 1 1 1 1 1 2 2 2 2 1 1 1 1 1
2 2 2 2 3 3 3 2 2 3 3 3 3 3 3 2 2 2 2 2 1 1 1 1 1 1 1 1 1 1 2 1 1 1 1 2 2 2 2 2 2 1 1
2 2 2 3 3 4 3 2 3 3 3 4 4 4 3 3 3 2 2 2 2 2 1 1 1 1 1 1 1 1 1 1 1 1 1 1 2 2 2 2 2 2 1
2 2 3 3 3 4 3 2 2 3 3 3 3 3 3 3 3 3 3 3 3 3 3 2 1 1 1 1 1 1 1 1 1 1 1 2 2 2 2 2 2 2 2
2 2 3 3 3 3 3 2 2 2 2 3 3 3 3 2 2 3 3 3 4 4 4 3 2 2 1 1 1 1 1 2 2 2 2 2 2 2 2 2 2 1 1
2 2 3 3 3 3 3 3 3 3 3 3 2 2 2 2 2 2 3 4 4 4 4 3 3 2 2 2 2 2 2 3 4 3 2 2 2 2 2 2 1 1 1
2 2 2 2 2 2 3 3 3 3 3 3 3 2 2 2 2 3 3 4 4 3 3 3 3 3 3 3 3 3 3 3 4 3 2 2 2 2 2 2 2 2 1
3 3 3 2 2 2 3 3 3 3 3 3 3 3 3 3 3 3 3 3 3 3 3 3 3 3 3 3 3 3 3 3 3 3 3 3 3 3 2 2 2 2 2
4 4 4 4 3 3 3 3 3 4 4 4 4 4 3 3 3 4 4 4 3 3 3 4 4 4 3 3 3 3 3 3 3 3 3 4 4 3 2 2 2 3 3
4 4 4 5 4 4 3 4 5 5 6 6 6 5 4 4 4 4 5 5 4 3 4 4 5 5 4 3 2 2 2 2 2 3 3 4 4 3 2 2 2 2 2
3 3 4 4 4 4 5 6 7 7 7 7 6 4 3 4 4 5 6 6 5 4 4 5 5 5 4 3 2 1 2 2 2 2 3 3 3 3 2 2 1 2 2
3 3 3 3 4 4 6 7 8 8 7 6 5 4 4 4 5 6 7 7 6 5 5 5 5 5 4 2 1 1 1 1 1 2 2 2 2 2 3 3 2 2 2
4 4 4 4 4 4 5 6 7 7 6 5 5 5 5 5 6 7 8 8 7 6 6 5 5 5 3 1 1 0 1 1 1 1 2 2 2 2 2 3 4 3 2
5 5 5 5 4 4 4 5 5 5 5 5 6 7 7 7 7 9 10 8 6 4 5 5 5 3 2 1 0 0 1 1 1 1 2 2 2 2 2 3 4 4 3
5 6 6 5 4 4 4 4 4 5 6 7 7 8 9 10 11 11 10 8 5 4 4 4 4 3 2 1 0 0 1 1 1 1 2 2 2 1 1 2 4 4 3
5 6 6 6 5 4 4 4 5 6 8 9 9 10 11 13 14 13 10 7 5 5 5 4 3 3 2 1 0 0 0 1 1 1 2 2 2 1 0 1 2 2 2
6 6 7 6 6 5 5 5 4 5 7 10 10 11 13 15 15 13 9 7 6 5 5 4 3 3 2 1 1 0 0 0 1 1 1 1 1 0 0 0 1 1 1
6 6 7 7 7 6 6 5 4 4 6 8 10 12 13 15 13 10 8 7 6 5 4 4 3 3 2 1 1 1 1 0 0 1 1 0 1 1 1 1 1 1 2
7 7 7 6 6 6 6 5 5 4 6 8 10 11 12 12 9 7 6 5 4 4 3 3 3 3 2 1 1 1 1 0 0 0 0 0 1 2 3 3 3 3 3
9 8 7 6 6 5 5 5 5 5 7 11 11 10 10 9 6 5 5 3 2 2 2 2 3 3 2 1 1 1 1 0 0 0 0 0 1 2 4 5 4 4 4

GEFSMW_con_maxscp_240.txt.gz
SCP
1 1 1 1 1 1 2 2 3 3 2 2 1 1 2 2 2 2 1 1 1 1 1 1 1 1 1 1 1 1 1 1 1 1 1 1 1 1 1 1 1 1 1
1 1 1 1 1 1 1 2 2 2 2 2 2 1 1 2 2 2 1 1 1 1 1 1 1 1 1 1 1 1 1 1 1 2 1 1 1 1 1 1 1 1 1
1 1 1 1 1 1 1 1 1 1 2 2 2 1 1 1 1 1 1 1 1 1 1 1 1 1 1 1 1 1 1 1 1 2 2 1 1 1 1 1 1 1 1
1 1 1 1 1 1 1 1 1 2 2 2 2 2 2 1 1 1 1 1 1 1 1 1 1 1 1 1 1 1 1 1 1 2 2 1 1 1 1 1 1 1 1
1 1 1 1 1 1 1 1 2 2 2 2 2 2 2 2 2 1 1 1 1 1 1 1 1 1 1 1 1 1 1 2 2 2 2 2 2 2 2 1 1 1 1
2 2 2 1 1 1 1 2 2 2 2 2 3 3 3 2 2 2 2 2 2 2 2 2 2 1 1 1 1 1 1 2 2 2 2 2 2 3 2 2 2 2 2
2 2 2 2 2 2 2 2 2 2 2 2 3 3 3 3 3 3 2 2 2 2 3 3 2 2 2 1 1 1 1 2 2 2 2 2 3 3 3 3 2 2 2
2 2 2 2 3 2 2 3 3 3 3 3 3 3 3 3 3 3 2 2 2 3 3 3 3 3 2 2 2 2 2 2 2 3 3 3 3 3 3 3 2 2 2
2 2 3 3 3 3 3 3 3 3 3 3 3 3 3 3 2 2 2 2 2 3 3 4 4 4 4 3 3 3 3 3 3 3 3 3 3 2 2 2 2 2 2
2 3 3 3 4 3 3 3 3 3 3 3 2 2 2 2 2 2 2 2 2 3 3 4 4 5 5 4 4 4 4 4 3 3 3 3 2 2 2 2 3 3 2
3 3 3 3 3 3 3 3 2 2 2 2 2 2 2 2 2 2 2 2 2 3 3 4 5 5 5 4 4 4 4 4 4 3 3 3 2 2 2 3 3 3 3
4 4 4 4 3 3 3 2 2 2 2 3 3 2 2 2 2 2 3 3 3 3 3 4 4 5 5 5 5 5 5 5 5 4 3 3 3 3 3 3 4 4 4
5 5 6 5 5 5 5 5 4 3 3 3 3 3 3 3 3 3 4 5 5 5 4 4 4 5 5 6 6 7 7 6 5 4 3 3 3 3 3 3 4 4 3
6 7 7 7 7 7 8 8 6 5 4 5 5 5 5 5 5 5 6 6 6 6 5 5 5 5 5 6 7 8 7 6 5 4 3 3 3 3 3 3 3 4 4
7 6 7 7 8 8 9 10 9 8 7 6 7 7 7 7 7 7 7 6 6 6 6 6 6 5 5 6 7 8 7 6 5 4 4 3 3 3 3 3 4 4 5
5 5 5 6 6 7 8 9 9 9 9 9 9 10 9 8 8 7 6 6 6 6 6 6 6 6 6 5 6 8 7 7 7 6 5 4 4 3 3 3 3 4 5
4 4 4 5 6 6 6 6 7 9 10 12 12 12 11 9 7 7 7 6 6 6 6 7 7 8 7 5 4 6 7 9 9 8 6 5 4 4 4 4 4 4 4
4 4 4 5 6 7 6 6 6 8 9 11 12 12 10 7 6 7 8 8 7 7 7 8 8 8 7 5 3 4 7 9 9 8 6 4 4 4 4 5 5 5 5
5 5 4 4 6 7 7 8 8 8 8 9 10 9 7 5 5 6 7 8 7 7 8 8 7 7 6 5 2 3 5 7 7 6 5 4 4 3 3 4 5 6 8
5 5 4 5 6 7 8 10 11 10 10 10 10 8 7 6 5 5 5 6 6 7 8 8 7 6 5 4 2 2 4 5 5 5 4 4 3 2 2 3 4 5 6
5 5 6 6 7 8 9 12 15 16 15 12 11 10 8 7 6 5 5 5 6 7 8 7 6 5 4 3 1 1 2 3 4 4 4 3 2 1 1 2 3 3 3
5 6 7 7 8 9 11 14 19 20 17 14 13 12 10 8 6 6 6 7 7 8 7 6 5 4 4 2 1 1 1 2 3 3 3 2 1 0 0 1 1 1 1
4 4 6 7 8 10 12 15 18 19 17 14 12 11 9 7 6 6 7 8 9 8 7 6 5 4 3 2 1 1 1 1 2 2 2 1 0 0 0 0 0 0 1
3 3 4 6 9 11 12 13 15 15 15 13 11 9 8 7 6 6 7 9 10 9 7 7 6 4 4 3 2 1 1 1 1 1 1 1 1 0 1 1 1 1 1
3 3 4 6 8 10 11 11 12 12 13 12 11 9 9 8 7 7 7 9 9 8 7 7 6 5 4 3 2 2 2 1 1 2 2 2 2 1 1 1 2 2 2
3 3 5 7 8 9 10 11 10 10 11 13 12 11 11 10 9 8 7 6 6 5 5 6 6 5 3 2 2 2 2 2 2 2 3 3 3 2 2 2 2 2 2

GEFSMW_con_maxscp_246.txt.gz
SCP
3 3 3 3 4 5 5 4 3 2 2 2 2 2 2 2 2 2 2 2 2 1 1 1 1 1 1 1 1 1 1 1 1 1 1 1 1 1 1 2 2 2 2
3 3 3 3 4 5 5 4 3 3 2 2 2 2 2 2 2 2 3 2 2 2 1 1 1 1 1 1 1 1 1 1 1 1 1 1 1 1 1 1 2 2 2
3 3 4 3 4 4 5 4 3 3 3 2 2 2 2 2 2 3 3 3 3 2 2 2 2 2 2 2 2 2 1 1 1 1 1 1 1 1 1 1 1 2 2
4 4 4 4 4 4 5 5 4 4 4 3 2 2 2 2 2 3 3 3 3 3 3 2 2 2 2 2 2 2 2 1 1 1 1 1 1 1 1 1 1 1 1
4 4 4 5 4 4 5 6 6 6 5 4 3 3 2 3 3 3 3 3 3 3 3 3 3 3 3 2 2 2 2 1 1 1 2 2 2 2 2 1 1 1 1
5 5 6 6 5 4 5 7 8 8 8 6 4 3 3 4 5 4 3 3 3 3 3 4 4 3 3 3 2 2 2 2 2 2 2 2 2 2 2 2 1 1 1
5 6 8 8 7 5 5 7 9 10 9 7 5 4 5 5 5 4 3 3 3 3 3 3 4 3 3 2 3 3 2 2 2 2 2 2 2 2 2 2 2 1 1
5 7 8 7 6 6 5 7 9 10 9 7 5 5 5 5 5 4 4 4 3 3 3 4 4 4 3 2 3 3 3 3 3 3 3 3 2 2 2 2 3 2 2
5 6 6 5 6 6 7 7 9 9 9 7 6 5 5 5 4 5 5 5 4 4 4 5 5 5 4 4 4 4 4 4 4 4 4 4 3 3 3 3 3 3 3
6 7 8 7 7 7 7 8 9 9 8 7 6 5 5 5 4 4 5 5 5 5 5 6 7 6 5 5 5 5 5 6 6 6 6 5 5 4 4 4 4 3 3
8 11 12 11 10 10 8 8 8 9 9 8 7 6 6 5 4 4 5 5 6 6 6 6 8 8 6 6 7 7 7 7 8 8 8 7 6 6 5 4 3 3 3
9 11 11 11 11 12 12 10 9 9 9 9 9 9 8 7 6 6 6 6 6 6 6 7 7 8 7 7 8 9 8 9 9 9 9 8 7 7 6 5 3 3 3
8 8 8 9 10 12 14 14 14 13 11 11 11 11 9 8 7 7 7 7 7 7 7 7 8 8 8 8 9 9 9 8 9 9 9 8 6 6 6 5 3 3 3
9 8 9 10 13 14 15 15 16 16 15 14 14 13 11 11 12 10 8 8 8 8 8 8 9 8 8 8 8 8 7 7 7 8 8 7 6 6 5 5 3 3 3
10 9 11 14 16 17 15 14 14 16 17 17 16 15 12 13 16 12 9 9 9 9 9 9 8 8 7 7 7 7 7 8 7 7 6 6 6 6 5 4 3 3 3
12 13 14 16 17 16 15 13 13 15 15 15 15 14 12 13 14 12 10 10 10 10 9 8 7 7 6 5 6 8 10 10 9 7 6 6 6 6 4 3 2 2 2
14 15 16 16 15 14 13 12 13 14 15 13 12 13 13 13 13 12 11 10 10 10 10 9 8 7 6 5 6 8 11 12 10 9 8 8 8 7 5 3 2 2 2
12 13 14 14 14 13 12 11 13 14 14 11 10 11 13 14 14 13 11 9 8 8 8 8 8 9 9 7 5 7 10 11 11 11 11 11 10 8 5 4 4 4 3
9 10 11 12 12 12 12 12 13 13 11 10 9 10 11 12 13 12 10 8 7 7 7 7 8 9 9 7 5 5 7 8 8 10 11 12 10 7 4 5 6 6 6
7 8 10 10 10 11 12 14 13 12 10 10 10 10 10 11 11 11 10 9 9 9 8 8 8 8 7 5 3 3 5 5 5 6 7 8 7 4 2 4 6 7 6
7 7 8 9 10 10 11 12 12 11 11 11 11 12 13 12 12 13 13 13 12 10 8 8 9 7 5 3 1 2 3 4 4 4 4 4 3 2 1 2 3 4 4
7 7 7 9 10 9 9 10 10 10 11 13 14 17 17 17 16 16 16 15 13 9 7 8 9 8 5 3 1 1 2 3 5 5 4 2 1 0 0 1 1 1 1
8 8 7 7 8 8 8 8 8 9 13 17 20 20 19 17 16 15 15 13 10 7 6 6 7 7 6 4 2 1 1 2 3 4 3 1 0 0 0 0 0 1 1
11 10 8 7 8 8 8 8 8 11 15 21 22 20 15 12 11 10 9 8 7 5 5 6 7 7 7 5 3 2 1 1 2 2 2 1 0 0 0 1 1 1 1
11 11 11 9 8 8 8 9 10 12 16 18 18 15 12 9 8 7 6 5 5 5 6 7 7 6 6 5 3 3 2 1 1 1 1 1 1 1 1 1 1 2 2
9 10 11 10 9 8 8 9 11 13 14 14 13 11 10 10 10 9 6 4 4 4 6 8 7 6 5 4 3 2 2 2 2 1 2 2 2 2 1 1 1 2 2

GEFSMW_con_maxscp_252.txt.gz
SCP
9 9 10 10 9 7 5 3 3 3 3 2 2 1 1 1 1 1 1 0 0 0 0 0 0 0 0 0 0 0 0 0 0 0 0 0 0 0 0 0 0 1 1
6 7 8 8 7 6 4 3 2 2 2 2 2 1 1 1 1 1 1 1 1 0 0 0 0 0 1 1 1 0 0 0 0 0 0 0 0 0 0 0 0 1 1
3 5 5 5 5 4 3 3 2 2 2 2 1 1 1 1 1 1 1 1 1 1 1 1 1 1 1 1 1 1 1 1 0 0 0 0 0 0 0 0 0 0 0
2 3 3 3 3 3 2 2 2 2 2 1 1 1 1 1 1 1 1 1 1 1 1 1 1 1 1 1 1 1 1 1 1 0 0 0 0 0 0 0 0 0 0
2 2 2 2 3 2 2 2 3 3 2 2 1 1 1 1 1 1 1 1 1 1 1 1 1 1 1 1 1 1 1 1 1 1 0 0 0 0 0 0 0 0 0
3 2 2 2 3 2 2 2 3 3 3 2 2 1 1 1 1 1 1 1 1 1 1 1 1 1 1 1 1 1 1 1 1 1 1 1 1 1 1 1 1 0 0
4 4 4 3 3 2 2 2 3 3 3 3 2 2 2 2 2 1 1 1 1 1 1 1 1 1 1 1 1 1 1 1 1 1 1 1 1 1 1 1 1 1 0
5 5 5 4 3 3 3 3 3 3 3 3 3 3 3 2 2 1 1 1 2 2 2 2 2 1 1 1 1 1 1 1 1 1 2 2 2 2 2 2 1 1 1
4 5 4 4 3 3 3 4 4 4 4 4 4 3 3 3 2 1 1 1 2 2 2 2 2 2 1 1 1 1 1 1 1 2 3 3 3 3 3 2 2 1 1
5 4 4 4 3 3 4 4 5 5 6 6 5 4 4 3 2 2 2 2 1 1 2 2 2 2 2 2 2 2 2 2 2 2 3 4 4 4 4 3 3 2 1
5 5 5 4 4 4 3 4 5 6 7 7 6 6 5 3 2 2 2 2 2 2 2 2 2 2 2 2 2 2 2 2 2 2 3 4 5 5 5 5 4 2 1
5 5 5 4 4 3 3 3 5 7 8 8 7 6 5 4 3 2 3 3 3 2 2 2 2 3 3 3 3 2 3 3 3 3 3 3 4 5 5 5 4 2 1
4 5 5 4 4 3 3 3 5 7 9 9 8 7 6 4 3 3 3 3 3 3 3 3 3 3 3 3 3 3 3 3 3 3 3 3 3 3 4 5 3 2 1
5 5 5 5 4 4 3 4 6 8 9 10 9 8 6 5 4 4 4 4 4 4 4 4 4 4 4 3 3 3 3 3 3 3 2 2 3 3 3 3 3 2 1
6 6 6 6 5 4 4 5 7 10 10 10 9 8 6 5 5 5 5 5 5 4 4 5 5 4 3 3 4 4 4 4 3 3 3 3 3 4 3 3 2 2 2
7 7 7 7 7 7 8 9 11 12 11 9 8 7 6 5 5 6 6 7 6 6 6 6 5 4 4 3 3 4 4 5 5 4 4 3 3 3 3 3 3 2 2
8 8 9 9 10 11 12 13 14 12 10 9 8 7 6 6 6 7 8 8 8 8 7 5 4 4 4 3 3 3 4 5 5 5 5 4 3 3 3 3 3 2 2
8 9 11 12 12 13 14 15 16 15 12 10 8 7 6 6 6 7 9 9 9 8 6 4 3 3 3 3 2 3 4 4 5 6 6 4 3 2 2 3 3 2 2
8 9 11 12 13 13 14 16 20 20 15 10 8 7 7 7 7 7 9 10 10 8 6 4 3 2 2 2 2 3 4 4 5 6 6 4 2 1 2 2 2 2 2
7 8 9 10 10 11 12 14 18 17 12 8 7 8 8 8 8 9 10 11 9 7 4 3 3 3 2 2 1 2 4 5 5 5 4 3 1 1 1 2 2 1 1
7 7 7 7 8 8 9 10 11 11 9 8 8 10 11 11 12 13 13 11 8 5 4 3 3 3 2 2 1 2 3 4 5 4 3 2 1 1 1 1 1 1 1
8 7 6 5 6 7 7 8 8 8 8 8 10 11 12 14 16 15 12 8 5 4 4 4 3 3 2 2 1 1 2 3 3 3 2 1 1 1 0 0 1 0 0
7 6 5 4 5 5 6 7 8 8 7 8 9 9 10 14 14 11 7 5 4 4 4 4 4 3 3 2 1 1 1 1 2 2 1 1 1 0 0 0 0 0 0
6 5 4 4 4 4 4 5 6 7 6 6 6 5 6 8 8 6 4 4 4 5 5 5 4 4 3 2 2 1 1 1 1 1 1 1 0 0 0 0 0 0 0
4 4 4 4 4 3 3 4 4 4 4 3 3 3 4 4 4 3 3 3 4 4 4 4 4 4 4 3 2 1 1 1 1 1 1 1 1 1 0 0 0 0 0
3 4 4 4 3 3 3 3 3 3 3 2 3 3 3 3 3 3 3 3 3 3 2 3 3 4 4 3 2 1 1 1 1 1 1 1 1 1 1 1 0 0 0

GEFSMW_con_maxscp_258.txt.gz
SCP
1 2 3 2 2 3 4 5 4 4 4 3 2 1 1 1 0 0 0 0 0 0 0 0 0 0 0 0 0 0 0 0 0 0 0 0 0 0 0 0 1 1 1
1 1 2 2 2 3 4 6 5 4 4 3 2 1 1 0 0 0 0 0 0 0 0 0 0 0 0 0 0 0 0 0 0 0 0 0 0 0 0 0 0 1 1
1 1 1 1 1 2 4 6 6 5 3 2 2 1 1 0 0 0 0 0 0 0 0 0 0 0 0 0 0 0 0 1 1 1 1 0 0 0 0 0 0 0 1
1 1 1 1 1 1 3 5 4 3 2 2 1 1 0 0 0 0 0 0 0 0 0 0 0 0 0 0 0 1 1 1 1 1 1 1 1 0 0 0 0 0 0
1 1 1 1 1 1 2 2 2 2 1 1 1 1 0 0 0 0 0 0 0 0 0 0 0 1 1 1 1 1 1 1 1 1 1 1 1 0 0 0 0 0 0
2 1 1 1 1 1 1 1 1 1 1 1 1 1 1 0 1 1 1 1 1 0 0 0 0 1 1 1 1 1 1 1 1 1 1 1 1 1 1 0 0 0 0
2 1 1 1 1 1 1 2 1 1 1 1 1 1 1 1 1 1 1 1 0 0 0 1 1 1 1 1 1 1 1 1 1 1 1 1 1 1 1 1 1 1 0
1 1 1 1 1 1 2 2 2 2 1 1 1 1 1 1 1 1 1 1 1 1 1 1 1 1 1 1 1 1 1 1 1 1 1 1 1 1 1 2 2 1 1
1 1 1 1 1 1 1 2 2 2 2 2 2 2 1 1 2 2 2 1 1 1 1 1 1 1 1 1 1 1 1 1 1 1 1 1 1 1 2 2 2 2 1
1 1 1 1 1 1 1 2 2 2 3 3 3 2 2 2 2 2 2 2 1 1 1 1 1 1 1 1 1 1 1 1 1 1 1 1 1 2 2 2 3 2 2
1 1 1 1 1 1 1 2 2 2 3 3 3 3 3 3 3 3 3 2 2 2 2 1 1 1 1 1 1 1 1 1 1 1 2 2 2 2 2 2 2 2 2
1 1 1 1 2 2 2 2 2 2 2 3 4 4 4 4 4 4 3 2 2 2 2 2 2 1 1 2 2 2 2 2 2 2 2 2 2 2 2 2 2 2 2
1 1 2 2 2 2 2 2 2 2 2 3 4 5 5 4 4 4 3 2 2 2 2 2 1 1 2 2 2 2 2 2 2 2 2 2 2 2 2 2 2 2 2
2 2 2 2 2 2 2 2 2 2 2 2 3 4 5 5 4 4 3 2 2 2 2 2 2 2 2 2 2 2 2 2 2 2 2 2 3 3 2 2 3 3 3
3 3 3 2 2 2 2 2 2 2 2 3 3 4 5 5 4 3 3 2 2 2 2 2 2 2 2 2 2 2 2 2 2 2 2 2 3 3 2 2 3 3 3
3 4 3 2 2 2 2 2 2 2 3 4 4 4 5 6 4 3 3 2 2 2 2 2 2 3 3 2 2 2 3 3 2 2 2 2 2 2 2 2 2 2 2
4 4 3 2 2 2 2 2 2 3 4 6 6 6 6 6 5 3 2 2 2 2 2 3 3 3 4 3 2 2 3 3 3 3 3 3 3 2 2 2 2 2 2
4 4 2 2 1 1 2 3 4 5 7 9 9 9 8 7 6 4 3 2 3 3 3 3 3 4 4 3 2 2 2 3 3 3 3 3 3 2 2 2 2 2 2
3 3 2 1 1 1 2 4 6 8 10 10 10 9 8 6 5 5 4 3 3 3 3 3 3 4 4 2 1 1 1 2 3 3 3 3 3 2 2 2 2 2 2
3 3 3 3 3 2 3 4 7 9 10 10 9 7 5 4 4 5 5 4 4 4 4 4 4 4 4 2 1 1 1 2 2 2 2 2 2 1 1 2 2 2 2
3 4 5 5 5 4 3 4 5 6 9 10 8 5 4 3 3 4 5 5 4 4 4 4 4 4 4 2 1 1 1 2 2 2 2 2 1 1 1 1 2 2 1
4 4 6 7 7 5 3 3 3 4 6 7 6 4 4 4 4 5 5 5 4 4 4 4 3 3 3 2 2 1 1 1 2 2 2 2 1 0 0 1 1 1 1
4 4 4 5 5 5 4 3 2 3 3 4 3 3 4 5 5 6 6 5 4 4 4 4 3 3 3 3 2 2 1 1 1 2 2 1 0 0 0 0 0 0 0
3 3 3 3 3 4 4 4 3 2 2 2 2 3 4 5 6 6 6 5 4 4 4 4 3 3 3 3 3 2 2 1 1 1 1 1 0 0 0 0 0 0 0
1 2 2 3 3 3 4 3 2 2 1 1 1 2 3 4 4 4 3 3 3 3 4 4 3 2 2 2 2 2 2 2 1 1 1 1 1 0 0 0 1 1 1
1 1 1 2 3 3 3 3 2 2 1 1 1 1 2 2 2 2 2 1 2 2 3 3 2 2 1 1 1 1 1 1 1 1 1 1 1 1 1 1 1 1 1

GEFSMW_con_maxscp_264.txt.gz
SCP
1 1 1 1 1 1 1 1 2 2 2 2 3 4 5 4 3 3 3 3 4 4 3 3 3 4 3 3 3 2 2 1 1 1 1 1 1 1 1 1 1 1 1
1 1 1 1 1 1 1 1 1 2 2 3 4 6 6 5 3 2 2 3 4 4 3 3 3 4 3 3 3 2 2 1 1 1 1 1 1 1 1 1 1 1 1
1 1 1 1 1 1 1 1 1 2 3 4 6 7 7 5 3 2 2 3 4 3 3 2 3 3 3 3 2 2 2 1 1 1 1 1 1 1 1 1 1 1 1
1 2 2 2 1 1 1 1 1 2 4 6 7 7 6 4 3 2 2 2 3 3 2 2 2 3 3 2 2 1 1 1 1 1 1 1 1 1 1 1 1 1 1
2 2 2 2 2 2 2 2 2 2 4 6 7 6 5 3 2 1 1 1 2 2 2 2 2 2 2 2 2 1 1 1 1 1 1 1 1 1 1 1 1 1 1
2 2 2 3 3 2 2 2 2 2 3 3 4 4 3 2 1 1 1 1 1 2 2 2 2 2 2 2 2 2 2 1 1 1 1 1 2 1 1 1 1 1 1
3 2 2 2 3 2 2 2 2 2 2 2 2 2 1 1 1 1 1 1 1 2 2 2 2 2 2 2 2 2 2 2 2 2 1 2 2 2 1 1 1 1 1
3 3 3 2 2 2 2 2 2 2 2 2 2 2 1 1 1 1 1 1 2 1 2 2 2 2 2 2 2 3 3 2 2 2 2 2 2 2 2 2 2 1 1
3 2 2 2 2 2 2 2 3 3 3 3 2 2 2 2 2 2 2 2 1 1 2 2 2 2 2 2 3 3 3 3 3 3 3 3 3 3 3 3 2 2 1
2 2 1 1 2 2 2 2 3 3 3 3 3 2 2 2 2 2 3 3 2 2 2 2 2 2 2 2 2 3 3 3 3 3 4 4 4 4 4 3 4 3 3
3 2 2 2 2 2 2 2 3 3 3 3 3 2 2 2 3 3 4 4 3 3 3 3 3 4 3 3 2 2 2 3 3 4 4 5 5 5 5 5 5 6 5
3 3 3 2 2 3 3 3 3 3 3 3 3 3 3 3 3 4 4 4 4 4 4 4 5 5 4 3 3 3 3 3 3 3 4 4 4 4 5 5 6 6 5
3 3 3 3 4 5 5 5 4 4 3 3 4 4 4 4 4 5 5 4 4 4 4 5 5 5 5 4 4 4 3 3 3 4 4 4 4 4 4 4 4 4 4
2 3 4 5 7 8 9 8 6 4 4 4 5 5 5 5 5 5 6 5 5 5 5 5 6 6 5 5 4 4 4 4 4 4 5 5 5 4 4 4 3 3 3
3 4 6 9 11 11 11 9 7 5 4 5 6 6 6 6 6 6 6 6 6 6 5 6 6 6 5 5 5 5 5 5 5 5 5 5 5 4 3 3 3 3 3
5 7 10 12 13 13 11 9 7 6 5 5 6 6 6 6 7 7 7 7 7 6 6 6 6 6 5 5 5 5 6 6 7 7 7 6 5 3 2 2 2 3 3
8 9 11 13 13 12 10 8 8 7 6 6 6 6 6 7 7 7 8 8 8 7 7 6 6 6 5 4 3 4 5 7 8 8 8 6 4 3 2 2 2 2 3
10 11 12 12 11 10 9 8 7 6 6 6 6 5 5 6 7 8 8 9 9 9 8 7 6 6 5 4 2 2 4 7 8 8 7 6 4 3 3 3 3 3 3
11 12 12 10 9 8 7 6 6 5 5 6 6 5 5 5 6 7 8 9 10 10 8 6 6 6 6 4 2 2 4 6 7 7 6 4 3 2 2 3 4 5 5
11 11 10 8 7 6 6 6 7 7 7 7 7 7 6 6 6 6 7 9 10 9 6 5 6 8 7 5 2 2 4 6 6 5 4 3 2 2 1 3 4 5 5
9 9 8 7 6 6 6 7 8 9 9 8 8 7 6 6 7 7 8 9 9 6 5 7 8 8 7 5 2 2 3 4 4 4 4 3 2 1 1 2 3 4 5
7 7 6 6 6 6 7 8 8 8 9 9 8 7 6 5 6 8 9 9 7 6 6 8 8 7 5 4 2 1 2 3 3 4 4 3 2 1 1 1 2 2 2
6 5 5 5 5 6 6 6 5 5 6 7 6 6 5 6 7 8 9 8 7 7 7 7 6 4 3 3 2 1 1 2 3 3 3 2 1 1 1 1 1 1 1
5 4 3 3 4 5 5 5 5 5 5 5 5 5 5 6 8 8 6 6 7 7 6 6 5 4 3 3 2 2 2 2 2 2 2 2 1 1 1 1 1 1 2
4 3 3 3 3 4 5 6 6 6 6 5 5 4 4 5 5 5 4 4 4 4 4 4 4 4 3 2 2 2 2 1 1 1 2 2 2 2 2 2 2 2 2
3 3 3 3 3 4 5 6 7 7 7 6 4 3 3 4 3 3 2 2 2 2 2 2 3 4 3 2 1 1 1 1 1 1 2 2 2 2 3 3 3 3 3